FW5790 Weather Reports


Display with metric or nautical units.
time (UTC)temp
F
wind
direction
speed
MPH
gust
MPH
rain 1hr
in
rain 24hr
in
rain mn
in
humidity
%
barometer
mb
20220701171547 86 84 1.0 2.0 0.00 0.00 0.00 67 1018.3
20220701170054 85 84 0.0 1.0 0.00 0.00 0.00 70 1018.5
20220701164601 85 84 0.0 1.0 0.00 0.00 0.00 70 1018.6
20220701163041 87 80 1.0 2.0 0.00 0.00 0.00 68 1018.7
20220701161537 87 69 1.0 2.0 0.00 0.00 0.00 68 1018.8
20220701160039 86 8 0.0 2.0 0.00 0.00 0.00 70 1018.9
20220701154542 86 92 0.0 2.0 0.00 0.00 0.00 73 1018.9
20220701153104 86 85 0.0 1.0 0.00 0.00 0.00 72 1018.9
20220701151603 85 83 1.0 2.0 0.00 0.00 0.00 74 1018.9
20220701150056 84 0 0.0 2.0 0.00 0.00 0.00 73 1018.9
20220701144556 83 70 1.0 2.0 0.00 0.00 0.00 73 1018.9
20220701143042 83 85 1.0 2.0 0.00 0.00 0.00 74 1019.2
20220701141544 82 90 0.0 2.0 0.00 0.00 0.00 76 1019.3
20220701140041 81 89 0.0 2.0 0.00 0.00 0.00 77 1019.3
20220701134545 80 89 0.0 2.0 0.00 0.00 0.00 78 1019.2
20220701133043 80 97 0.0 2.0 0.00 0.00 0.00 80 1019.1
20220701131543 79 122 0.0 1.0 0.00 0.00 0.00 80 1019.1
20220701130045 78 123 0.0 1.0 0.00 0.00 0.00 81 1019.1
20220701124540 77 0 0.0 1.0 0.00 0.00 0.00 82 1019.2
20220701123045 76 123 0.0 1.0 0.00 0.00 0.00 83 1019.1
20220701121533 75 124 0.0 1.0 0.00 0.00 0.00 85 1019.3
20220701120048 74 0 0.0 1.0 0.00 0.00 0.00 86 1019.2
20220701114540 73 0 0.0 1.0 0.00 0.00 0.00 87 1019.2
20220701113038 72 0 0.0 0.0 0.00 0.00 0.00 87 1019.2
20220701111541 72 0 0.0 0.0 0.00 0.00 0.00 87 1019.1
20220701110040 72 0 0.0 0.0 0.00 0.00 0.00 87 1019.2
20220701104544 72 0 0.0 0.0 0.00 0.00 0.00 87 1018.9
20220701103043 72 0 0.0 0.0 0.00 0.00 0.00 87 1018.9
20220701101552 72 0 0.0 0.0 0.00 0.00 0.00 87 1018.7
20220701100045 72 0 0.0 1.0 0.00 0.00 0.00 87 1018.6
20220701094548 72 0 0.0 0.0 0.00 0.00 0.00 86 1018.7
20220701093045 73 0 0.0 0.0 0.00 0.00 0.00 86 1018.7
20220701091555 73 0 0.0 1.0 0.00 0.00 0.00 86 1018.6
20220701090053 73 0 0.0 1.0 0.00 0.00 0.00 86 1018.5
20220701084550 73 0 0.0 1.0 0.00 0.00 0.00 86 1018.5
20220701083058 73 0 0.0 0.0 0.00 0.00 0.00 86 1018.4
20220701081552 73 0 0.0 0.0 0.00 0.00 0.00 86 1018.2
20220701080045 73 0 0.0 0.0 0.00 0.00 0.00 86 1018.3
20220701074600 73 0 0.0 0.0 0.00 0.00 0.00 85 1018.4
20220701073111 73 0 0.0 0.0 0.00 0.00 0.00 85 1018.5
20220701071539 73 0 0.0 0.0 0.00 0.00 0.00 85 1018.5
20220701070045 73 0 0.0 0.0 0.00 0.00 0.00 84 1018.5
20220701064606 74 0 0.0 0.0 0.00 0.00 0.00 84 1018.5
20220701063048 74 0 0.0 0.0 0.00 0.00 0.00 83 1018.6
20220701061545 74 0 0.0 0.0 0.00 0.00 0.00 83 1018.6
20220701060048 74 0 0.0 1.0 0.00 0.00 0.00 83 1018.7
20220701054539 74 0 0.0 0.0 0.00 0.00 0.00 83 1018.7
20220701053047 74 0 0.0 0.0 0.00 0.00 0.00 83 1018.9
20220701051544 74 0 0.0 0.0 0.00 0.00 0.00 83 1018.9
20220701050054 75 0 0.0 0.0 0.00 0.00 0.00 82 1019.0
20220701044601 75 0 0.0 0.0 0.00 0.00 0.00 82 1019.1
20220701043046 76 0 0.0 0.0 0.00 0.00 0.00 81 1019.2
20220701041546 77 0 0.0 1.0 0.00 0.00 0.00 79 1019.1
20220701040042 77 148 0.0 0.0 0.00 0.00 0.00 79 1019.1
20220701034551 77 148 0.0 0.0 0.00 0.00 0.00 78 1019.3
20220701033042 77 0 0.0 0.0 0.00 0.00 0.00 79 1019.3
20220701031548 77 148 0.0 0.0 0.00 0.00 0.00 79 1019.2
20220701030057 77 0 0.0 0.0 0.00 0.00 0.00 78 1019.1
20220701024543 77 0 0.0 0.0 0.00 0.00 0.00 78 1019.1
20220701023053 77 0 0.0 0.0 0.00 0.00 0.00 78 1018.8
20220701021545 78 0 0.0 0.0 0.00 0.00 0.00 77 1018.5
20220701020042 79 0 0.0 0.0 0.00 0.00 0.00 75 1018.5
20220701014545 80 0 0.0 0.0 0.00 0.00 0.00 74 1018.3
20220701013052 80 0 0.0 0.0 0.00 0.00 0.00 75 1018.3
20220701011538 81 148 0.0 0.0 0.00 0.00 0.00 75 1018.2
20220701010045 81 0 0.0 0.0 0.00 0.00 0.00 73 1017.9
20220701004541 82 150 0.0 0.0 0.00 0.00 0.00 72 1017.9
20220701003047 83 0 0.0 0.0 0.00 0.00 0.00 69 1017.9
20220701001549 84 0 0.0 0.0 0.00 0.00 0.00 67 1017.9
20220701000046 84 0 0.0 0.0 0.00 0.00 0.00 65 1018.2
20220630234544 85 0 0.0 0.0 0.00 0.00 0.00 65 1017.9
20220630233043 86 0 0.0 0.0 0.00 0.00 0.00 64 1017.8
20220630231553 86 0 0.0 0.0 0.00 0.00 0.00 63 1017.5
20220630230051 85 0 0.0 0.0 0.00 0.00 0.00 66 1017.7
20220630224540 84 0 0.0 0.0 0.00 0.00 0.00 65 1017.7
20220630223041 85 0 0.0 0.0 0.00 0.00 0.00 65 1018.0
20220630221546 85 0 0.0 0.0 0.00 0.00 0.00 63 1018.1
20220630220047 86 0 0.0 0.0 0.00 0.00 0.00 63 1018.3
20220630214544 86 0 0.0 1.0 0.00 0.00 0.00 62 1018.3
20220630213045 86 157 0.0 1.0 0.00 0.00 0.00 61 1018.5
20220630211545 86 0 0.0 0.0 0.00 0.00 0.00 60 1018.5
20220630210038 86 0 0.0 0.0 0.00 0.00 0.00 61 1018.7
20220630204534 86 0 0.0 0.0 0.00 0.00 0.00 59 1018.9
20220630203038 87 257 0.0 1.0 0.00 0.00 0.00 56 1018.9
20220630201547 88 0 0.0 1.0 0.00 0.00 0.00 54 1019.1
20220630200050 89 257 0.0 2.0 0.00 0.00 0.00 55 1019.2
20220630194538 89 0 0.0 2.0 0.00 0.00 0.00 52 1019.3
20220630193040 90 68 0.0 1.0 0.00 0.00 0.00 49 1019.6
20220630191548 91 65 0.0 2.0 0.00 0.00 0.00 48 1019.8
20220630190047 92 82 0.0 2.0 0.00 0.00 0.00 48 1020.0
20220630184538 91 73 0.0 2.0 0.00 0.00 0.00 48 1020.2
20220630183045 91 174 0.0 2.0 0.00 0.00 0.00 53 1020.4
20220630181536 89 88 2.0 3.0 0.00 0.00 0.00 51 1020.7
20220630180034 91 21 1.0 2.0 0.00 0.00 0.00 47 1021.0
20220630174538 91 65 1.0 3.0 0.00 0.00 0.00 46 1021.3
20220630173042 90 96 0.0 2.0 0.00 0.00 0.00 50 1021.4